EHI
0 0 0 0 0 0 0 0 0 0 0 0 0 0 0 0 0 0 0 0 0 0 0 0 0 0 0 0 0 0 0 0 0 0 0 0 0 0
0 0 0 0 0 0 0 0 0 0 0 0 0 0 0 0 0 0 0 0 0 0 0 0 0 0 0 0 0 0 0 0 0 0 0 0 0 0
0 0 0 0 0 0 0 0 0 0 0 0 0 0 0 0 0 0 0 0 0 0 0 0 0 0 0 0 0 0 0 0 0 0 0 0 0 0
0 0 0 0 0 0 0 0 0 0 0 0 0 0 0 0 0 0 0 0 0 0 0 0 0 0 0 0 0 0 0 0 0 0 0 0 0 0
0 0 0 0 0 0 0 0 0 0 0 0 0 0 0 0 0 0 0 0 0 0 0 0 0 0 0 0 0 0 0 0 0 0 0 0 0 0
0 0 0 0 0 0 0 0 0 0 0 0 0 0 0 0 0 0 0 0 0 0 0 0 0 0 0 0 0 0 0 0 0 0 0 0 0 0
0 0 0 0 0 0 0 0 0 0 0 0 0 0 0 0 0 0 0 0 0 0 0 0 0 0 0 0 0 0 0 0 0 0 0 0 0 0
0 0 0 0 0 0 0 0 0 0 0 0 0 0 0 0 0 0 0 0 0 0 0 0 0 0 0 0 0 0 0 0 0 0 0 0 0 0
0 0 0 0 0 0 0 0 0 0 0 0 0 0 0 0 0 0 0 0 0 0 0 0 0 0 0 0 0 0 0 0 0 0 0 0 0 0
0 0 0 0 0 0 0 0 0 0 0 0 0 0 0 0 0 0 0 0 0 0 0 0 0 0 0 0 0 0 0 0 0 0 0 0 0 0
0 0 0 0 0 0 0 0 0 0 0 0 0 0 0 0 0 0 0 0 0 0 0 0 0 0 0 0 0 0 0 0 0 0 0 0 0 0
0 0 0 0 0 0 0 0 0 0 0 0 0 0 0 0 0 0 0 0 0 0 0 0 0 0 0 0 0 0 0 0 0 0 0 0 0 0
0 0 0 0 0 0 0 0 0 0 0 0 0 0 0 0 0 0 0 0 0 0 0 0 0 0 0 0 0 0 0 0 0 0 0 0 0 0
0 0 0 0 0 0 0 0 0 0 0 0 0 0 0 0 0 0 0 0 0 0 0 0 0 0 0 0 0 0 0 0 0 0 0 0 0 0
0 0 0 0 0 0 0 0 0 0 0 0 0 0 0 0 0 0 0 0 0 0 0 0 0 0 0 0 0 0 0 0 0 0 0 0 0 0
0 0 0 0 0 0 0 0 0 0 0 0 0 0 0 0 0 0 0 0 0 0 0 0 0 0 0 0 0 0 0 0 0 0 0 0 0 0
0 0 0 0 0 0 0 0 0 0 0 0 0 0 0 0 0 0 0 0 0 0 0 0 0 0 0 0 0 0 0 0 0 0 0 0 0 0
0 0 0 0 0 0 0 0 0 0 0 0 0 0 0 0 0 0 0 0 0 0 0 0 0 0 0 0 0 0 0 0 0 0 0 0 0 0
0 0 0 0 0 0 0 0 0 0 0 0 0 0 0 0 0 0 0 0 0 0 0 0 0 0 0 0 0 0 0 0 0 0 0 0 0 0
0 0 0 0 0 0 0 0 0 0 0 0 0 0 0 0 0 0 0 0 0 0 0 0 0 0 0 0 0 0 0 0 0 0 0 0 0 0
0 0 0 0 0 0 0 0 0 0 0 0 0 0 0 0 0 0 0 0 0 0 0 0 0 0 0 0 0 0 0 0 0 0 0 0 0 0
0 0 0 0 0 0 0 0 0 0 0 0 0 0 0 0 0 0 0 0 0 0 0 0 0 0 0 0 0 0 0 0 0 0 0 0 0 0
0 0 0 0 0 0 0 0 0 0 0 0 0 0 0 0 0 0 0 0 0 0 0 0 0 0 0 0 0 0 0 0 0 0 0 0 0 0
Wind_Speed
3 3 2 1 2 2 2 2 3 2 2 2 2 2 2 2 4 3 4 6 8 8 8 8 9 9 9 8 9 9 8 8 8 8 8 9 9 10
3 3 3 2 2 2 2 2 2 3 3 2 2 2 2 2 4 4 5 8 9 9 10 10 11 11 11 11 10 10 10 10 10 10 10 10 10 10
4 5 5 3 3 2 2 2 3 3 4 3 2 2 3 4 3 3 4 5 6 10 11 12 12 12 12 12 12 12 12 12 12 12 12 11 11 11
6 6 6 4 5 4 4 4 4 5 4 5 3 3 4 4 4 5 5 5 6 9 12 13 13 14 14 14 14 13 13 13 13 13 13 13 13 13
7 7 7 6 6 5 5 5 5 5 5 5 5 3 3 3 4 4 5 5 6 7 11 13 14 15 15 15 15 14 14 14 14 14 14 14 14 14
7 7 7 7 8 7 6 6 6 5 5 5 6 5 5 4 3 5 5 4 5 6 7 8 10 13 14 15 15 15 15 15 15 15 15 15 15 15
6 6 7 7 8 7 6 6 6 5 5 5 6 5 5 4 5 4 6 7 6 5 6 6 6 7 8 10 13 15 15 16 16 16 16 16 16 16
5 4 4 4 5 6 7 7 6 6 7 6 6 7 8 6 5 5 6 6 7 3 4 6 4 7 7 7 11 14 15 16 16 16 17 17 17 17
1 1 1 1 1 2 3 4 4 5 7 6 8 8 8 6 6 7 7 8 9 6 5 9 8 9 8 9 13 15 16 16 17 17 17 17 17 17
3 2 2 3 4 3 2 3 3 3 4 3 5 6 7 6 6 7 8 9 9 7 7 9 9 10 10 9 12 16 17 17 17 17 18 17 17 18
4 4 4 3 5 5 3 3 4 5 4 5 7 8 10 11 9 6 6 6 8 7 5 7 8 10 10 10 10 15 17 18 18 18 18 18 18 17
2 3 4 3 4 5 3 3 5 6 6 8 7 8 7 8 9 7 6 7 7 7 5 5 7 7 8 7 8 8 10 13 16 18 18 18 17 12
2 2 3 5 5 5 4 3 5 7 6 6 6 7 6 5 6 5 6 7 8 8 6 6 7 8 10 10 8 9 9 10 10 11 14 17 18 15
2 2 3 6 6 6 4 5 8 6 4 4 5 5 6 6 6 7 8 8 9 11 10 9 9 9 11 13 11 9 9 9 10 11 10 12 14 17
2 4 5 6 6 5 6 8 6 4 4 4 5 6 6 7 7 7 8 8 9 10 11 11 11 10 11 12 12 11 11 10 10 11 11 10 10 9
4 5 6 6 5 5 6 5 4 4 4 5 6 6 6 6 7 6 7 8 8 9 8 10 10 12 12 13 12 12 11 10 9 10 11 11 11 10
4 3 4 4 6 6 6 6 6 5 5 5 6 7 7 7 8 7 7 7 8 9 10 8 8 9 12 12 12 12 12 12 12 11 11 13 13 12
3 3 4 5 6 6 7 7 7 7 7 7 7 7 8 8 8 8 8 8 9 10 10 9 9 9 9 10 12 13 12 12 11 11 11 12 14 12
4 4 5 6 6 7 7 7 7 8 8 8 8 8 8 8 9 9 9 9 10 10 10 9 8 9 12 14 10 10 11 11 11 11 11 12 14 13
4 5 6 6 6 7 7 7 8 8 8 8 8 9 9 9 9 9 9 10 10 11 11 10 9 9 11 13 13 12 13 14 12 12 12 11 12 13
5 6 6 6 7 7 8 8 8 8 9 9 9 9 9 9 10 10 10 12 12 11 12 11 11 13 11 9 11 12 12 14 15 13 12 11 12 11
6 6 6 7 7 7 8 8 8 8 9 9 9 9 9 9 11 12 11 11 10 11 13 12 11 10 9 11 13 14 14 13 13 17 19 17 11 10
6 7 7 7 7 7 7 9 10 9 9 9 9 9 10 10 10 10 11 11 11 12 12 12 10 9 10 11 12 12 15 14 11 10 11 14 19 22
Wind_Direction
187 186 189 195 185 183 170 163 159 203 267 280 288 297 267 246 246 241 242 251 254 250 248 250 252 253 254 255 257 258 259 259 260 261 263 264 265 265
196 195 205 211 202 191 186 182 175 179 229 259 261 279 288 275 247 239 247 255 259 258 256 255 254 253 253 253 253 254 254 253 253 254 254 255 258 260
206 208 218 206 206 202 191 187 190 184 223 259 246 261 266 270 274 259 254 252 256 255 255 255 254 253 252 251 250 250 250 250 250 250 250 250 251 252
218 215 226 216 216 213 205 207 208 205 218 255 259 250 248 255 262 267 264 255 252 255 253 253 253 252 251 250 249 248 247 247 247 247 247 246 247 249
220 219 226 218 226 223 219 222 222 218 216 238 260 251 257 256 267 270 267 264 261 258 254 252 251 251 250 249 248 247 246 246 245 244 244 244 244 246
228 227 229 223 230 230 229 231 229 229 225 237 256 260 259 253 247 264 276 263 265 268 261 258 254 252 250 248 247 245 244 243 243 242 242 242 242 242
234 235 236 234 236 234 236 235 228 235 239 244 257 265 265 254 253 251 269 282 276 257 262 261 257 258 258 252 248 245 243 242 241 240 240 240 240 240
240 241 241 245 252 246 245 240 227 234 245 249 258 262 270 266 265 261 271 280 283 249 243 268 258 262 260 255 249 245 245 243 241 240 239 238 238 238
252 260 283 7 339 298 287 281 269 261 250 253 262 267 276 278 278 274 264 262 266 269 268 277 270 268 264 259 248 246 246 246 244 242 240 239 238 237
51 56 60 32 19 3 344 340 326 313 292 269 262 273 278 283 273 273 276 275 270 262 248 269 273 270 270 263 251 246 246 246 246 245 243 241 239 238
45 48 55 42 14 17 18 345 325 313 305 304 294 287 287 286 282 279 272 271 276 273 243 255 272 277 275 268 258 246 245 247 247 247 246 244 242 240
33 37 42 22 1 5 360 329 311 307 313 314 308 302 295 289 284 263 262 268 274 277 253 250 272 282 281 267 262 264 260 254 250 249 247 246 243 243
11 354 351 351 351 349 336 298 291 300 303 301 301 301 299 292 286 274 259 257 267 267 269 268 275 274 271 279 278 273 270 270 267 260 250 245 241 233
353 335 328 338 342 339 332 319 316 313 304 305 305 303 303 301 298 292 280 268 259 264 270 267 268 269 273 277 277 274 269 268 267 267 265 256 246 236
345 337 340 345 343 341 335 331 331 328 319 312 307 303 299 296 299 299 296 288 280 271 269 262 261 266 265 269 275 275 276 273 265 262 261 258 256 248
351 345 348 353 350 335 333 337 336 323 312 306 304 302 302 301 299 301 301 304 298 293 284 275 269 267 268 269 270 272 269 268 265 262 262 262 257 251
340 349 357 351 348 344 338 334 331 329 322 314 307 306 304 301 299 300 293 294 289 292 296 293 284 274 266 268 270 268 269 268 265 265 262 263 259 253
15 358 346 341 336 332 329 326 325 323 320 314 309 306 304 302 299 298 293 290 289 289 289 291 293 292 284 268 244 262 268 269 269 265 262 264 265 259
16 352 341 336 331 327 323 320 319 319 316 312 309 307 304 302 300 297 294 292 289 288 287 287 283 281 283 284 274 241 264 274 274 269 263 258 262 263
1 346 337 331 328 326 323 320 317 316 314 313 310 307 304 302 299 296 293 292 292 291 288 283 277 272 273 281 286 280 258 263 269 270 269 266 264 265
345 337 331 327 326 324 322 319 316 312 311 310 307 305 304 302 299 297 295 292 289 287 287 286 284 280 278 278 276 274 270 251 249 259 267 268 267 264
336 331 328 325 323 321 319 317 316 313 311 308 307 305 303 300 297 296 295 294 292 290 290 288 287 284 274 270 274 280 283 281 263 250 247 246 253 255
331 326 323 323 322 320 318 316 315 312 311 311 309 306 304 301 297 293 292 291 291 291 293 293 291 283 276 272 274 277 281 283 281 279 270 252 243 248